Location: *
(51.0333°S, 178.4667°E)
Time: 05:34:07
(UTC+00:00)

Cosmos 1300 Rocket - Pass Details

Date: 15 November 2019
Orbit: 601 x 627 km, 82.5° (Epoch: 12 December)

Event Time Altitude Azimuth Distance (km) Brightness Sun altitude
Exits shadow 11:36:56 53° 342° (NNW) 758 3.6 -20.4°
Maximum altitude 11:37:56 84° 262° (W) 624 3.5 -20.4°
Drops below altitude 10° 11:42:22 10° 171° (S) 1,992 7.3 -20.5°
Sets 11:44:37 0° 169° (S) 2,907 8.5 -20.5°
